SCP
5 5 5 5 5 6 5 5 4 4 5 4 3 3 3 3 3 2 2 3 3 3 3 2 2 3 3 3 3 4 4 4 4 5 4 4 3 3 3 3 3 3 3
5 6 6 6 6 7 6 5 4 4 5 4 3 2 2 2 2 2 2 2 2 2 2 2 2 3 3 3 3 4 4 4 4 5 5 4 3 3 3 3 3 4 4
6 7 7 7 8 8 6 6 5 4 4 4 3 2 1 1 1 1 1 1 2 2 2 2 2 3 3 3 3 3 3 3 4 4 5 5 4 3 3 3 3 4 4
7 7 8 8 8 7 6 6 5 4 4 3 2 2 1 1 1 1 1 1 1 1 1 2 2 2 3 3 3 3 3 3 4 4 4 5 4 4 3 3 3 3 4
6 6 6 5 5 4 3 4 4 4 3 3 2 2 2 1 1 1 1 1 1 1 1 1 2 2 2 3 3 3 3 3 3 4 4 4 4 4 4 3 3 3 3
3 3 3 3 2 2 2 3 3 3 3 3 3 3 3 2 2 2 1 1 1 1 1 1 2 2 2 2 2 2 3 3 3 3 3 4 4 3 4 4 3 3 4
2 2 2 2 2 2 2 4 4 5 4 4 3 3 3 3 3 3 2 2 1 1 2 2 2 2 2 2 2 2 2 3 3 3 3 3 3 3 4 4 3 4 4
2 2 2 2 2 2 3 4 5 6 6 5 4 4 4 4 4 4 3 3 2 2 2 2 2 1 1 1 2 2 2 2 2 2 2 2 2 3 3 3 3 4 4
1 1 1 2 2 2 2 3 4 5 6 6 5 5 5 5 5 5 4 4 4 3 3 3 2 2 1 1 1 2 2 2 2 2 2 2 2 3 3 3 3 3 3
1 1 1 1 2 2 2 2 3 3 3 4 5 5 5 6 5 5 5 5 6 5 5 4 3 2 1 1 1 2 2 2 1 1 2 2 2 3 3 3 3 3 3
0 0 0 1 1 1 1 1 1 1 2 2 3 4 5 5 5 5 4 5 5 5 5 5 4 3 2 2 2 2 2 2 2 1 1 2 2 3 3 3 3 3 3
0 0 0 0 0 0 0 0 0 1 1 1 2 3 3 4 4 4 4 4 4 4 5 5 4 3 2 2 2 2 2 2 2 1 1 1 2 2 3 3 3 3 3
0 0 0 0 0 0 0 0 0 0 0 0 1 1 2 3 3 4 4 4 4 4 4 4 4 3 3 2 2 2 2 2 2 1 1 1 2 2 2 2 3 3 2
0 0 0 0 0 0 0 0 0 0 0 0 0 0 1 1 2 2 3 3 3 3 4 4 4 3 3 2 2 2 2 2 2 1 1 1 1 2 2 2 2 2 2
0 0 0 0 0 0 0 0 0 0 0 0 0 0 0 1 1 1 2 2 2 2 3 4 4 3 2 2 1 2 2 2 1 1 1 1 1 1 1 1 2 2 2
0 0 0 0 0 0 0 0 0 0 0 0 0 0 0 0 0 1 1 1 2 2 2 3 3 3 2 1 1 1 1 1 1 1 1 1 0 0 0 1 1 1 1
0 0 0 0 0 0 0 0 0 0 0 0 0 0 0 0 0 1 1 1 1 1 2 2 2 2 1 0 0 0 1 1 1 1 0 0 0 0 0 0 0 0 0
0 0 0 0 0 0 0 0 0 0 0 0 0 0 1 1 1 1 1 1 1 1 2 2 2 1 1 0 0 0 0 1 1 0 0 0 0 0 0 0 0 0 0
0 0 0 0 0 0 0 0 0 0 0 0 1 1 1 1 1 0 0 1 1 1 1 1 1 1 1 0 0 0 0 0 0 0 0 0 0 0 0 0 0 0 0
0 0 0 0 0 0 0 0 0 0 0 1 1 1 1 1 0 0 0 0 1 1 1 1 1 1 1 0 0 0 0 0 0 0 0 0 0 0 0 0 0 0 0
0 0 0 0 0 1 0 0 0 0 1 1 1 0 0 0 0 0 0 0 0 0 1 1 1 1 1 0 0 0 0 0 0 0 0 0 0 0 0 0 0 0 0
0 0 0 1 1 1 1 1 1 1 1 1 0 0 0 0 0 0 0 0 0 0 0 0 1 1 1 0 0 0 0 0 0 0 0 0 0 0 0 0 0 0 0
0 0 0 0 1 1 1 1 1 0 0 0 0 0 0 0 0 0 0 0 0 0 0 0 0 1 1 0 0 0 0 0 0 0 0 0 0 0 0 0 0 0 0
0 0 0 0 0 1 1 1 0 0 0 0 0 0 0 0 0 0 0 0 0 0 0 0 0 1 1 0 0 0 0 0 0 0 0 0 0 0 0 0 0 0 0
0 0 0 0 0 0 0 0 0 0 0 0 0 0 0 0 0 0 0 0 0 0 0 0 0 0 0 0 0 0 0 0 0 0 0 0 0 0 0 0 0 0 0
1 0 0 0 0 0 0 0 0 0 0 0 0 0 0 0 0 0 0 0 0 0 0 0 0 0 0 0 0 0 0 0 0 0 0 0 0 0 0 0 0 0 0
Wind_Speed
5 5 6 6 7 7 7 6 5 5 4 2 3 3 3 4 4 4 5 7 7 8 7 8 8 8 8 9 10 9 10 8 6 7 9 10 10 10 8 8 9 10 11
6 6 6 7 7 7 6 6 6 5 4 3 2 2 3 4 4 4 4 6 6 7 7 7 8 8 8 10 10 9 8 8 7 7 7 7 8 9 10 9 9 10 9
5 6 6 5 5 5 4 4 3 4 4 3 3 2 3 4 3 3 3 4 6 7 7 8 9 8 9 9 9 9 11 10 9 9 8 7 8 5 6 9 8 8 7
3 4 4 3 3 2 2 1 2 3 3 4 4 4 4 4 4 4 4 5 6 7 7 8 8 9 9 9 10 10 9 11 9 8 10 10 8 6 5 6 7 8 8
3 3 3 3 3 2 1 1 1 2 3 4 4 5 6 4 4 4 5 6 6 6 7 8 8 8 8 9 10 10 11 9 10 9 8 10 10 11 8 7 6 6 6
4 4 5 5 4 4 3 3 3 3 4 5 5 6 7 7 7 7 7 6 5 5 6 7 8 9 8 9 9 10 12 11 11 10 9 9 8 8 9 10 8 6 4
6 6 7 7 7 7 6 5 5 5 5 5 6 6 7 8 9 8 7 7 7 6 5 7 8 8 8 9 10 10 11 11 12 11 10 10 10 8 9 9 8 7 4
10 10 10 9 9 9 9 8 7 7 7 7 7 7 8 8 7 7 8 8 7 7 7 8 9 9 10 10 9 10 11 10 11 12 12 9 10 9 9 8 7 6 5
11 11 11 11 11 10 10 10 9 9 8 8 8 8 8 9 9 9 9 9 7 7 8 9 9 10 10 10 10 9 10 10 11 11 11 10 9 8 8 8 8 7 6
10 11 10 11 10 10 10 10 10 9 9 10 9 8 8 9 9 10 10 10 9 8 9 9 10 10 10 10 9 10 9 10 10 9 10 10 8 7 7 7 7 7 6
9 10 9 10 10 10 10 10 10 10 10 10 10 10 10 10 10 10 10 10 10 10 10 10 10 10 9 9 8 10 10 10 10 10 10 10 9 7 6 6 6 6 5
9 9 9 10 10 10 10 10 10 10 11 11 11 11 11 11 11 11 11 11 11 11 11 10 10 10 9 8 9 10 9 9 10 9 9 8 6 7 5 5 5 5 5
9 9 9 10 10 10 10 10 10 10 11 11 11 11 11 12 12 13 12 11 12 11 11 11 10 10 9 9 8 8 8 8 8 7 7 6 5 5 4 5 5 5 6
10 10 10 10 10 10 10 10 10 10 10 10 11 11 11 12 12 13 12 12 11 12 12 11 11 10 9 8 8 7 6 5 4 3 3 3 4 5 5 5 7 7 8
11 10 10 10 10 11 11 11 12 11 11 12 12 12 12 12 12 13 13 12 12 12 11 12 11 10 9 7 6 6 5 3 1 1 2 2 4 4 3 5 8 9 8
12 12 13 13 14 14 14 13 13 13 13 13 14 13 13 13 13 13 13 13 12 11 11 11 12 11 8 3 2 5 4 2 3 4 5 6 7 11 11 11 9 7 8
14 16 16 16 15 15 15 15 15 15 14 15 15 14 14 14 14 14 14 13 13 12 11 11 11 11 8 7 6 5 5 4 5 5 6 6 7 9 10 13 14 13 11
18 18 18 18 17 17 16 16 16 16 16 16 15 15 15 15 15 14 14 13 12 11 11 10 11 11 8 10 9 7 6 5 6 7 7 8 9 9 11 12 12 11 10
19 18 18 19 18 18 17 17 17 17 16 16 16 15 15 16 16 15 15 13 12 11 11 10 10 10 9 11 11 10 7 7 7 7 8 9 10 11 12 12 13 12 10
18 19 19 19 19 18 17 18 18 18 17 16 16 15 15 16 16 16 15 13 12 12 11 10 9 10 9 13 14 12 8 9 8 7 8 9 11 11 10 12 13 13 12
21 20 20 18 18 18 18 19 19 18 17 17 16 16 16 16 17 15 14 13 12 12 11 11 9 9 9 13 16 14 8 10 10 10 9 9 12 10 9 9 10 12 12
22 21 19 19 18 17 18 19 19 18 18 17 17 17 16 16 14 14 13 13 12 12 11 9 8 6 7 11 14 14 10 9 11 10 10 11 12 10 8 8 12 12 10
22 21 21 21 19 18 18 19 19 18 18 18 17 17 17 15 15 15 14 12 11 10 9 7 6 5 6 9 13 14 11 7 7 9 13 16 14 12 9 13 13 11 8
21 20 21 21 20 19 19 19 19 18 18 18 17 16 15 15 14 12 11 11 10 9 8 7 5 5 6 8 10 11 10 9 9 11 15 16 12 9 12 12 10 8 7
21 20 20 20 22 20 19 19 18 18 18 17 16 15 14 13 12 12 11 11 11 8 8 7 5 5 7 10 14 13 12 11 11 14 12 12 12 11 11 11 9 8 8
21 21 21 22 22 21 20 20 18 17 16 15 14 12 11 10 11 11 11 11 13 10 10 11 9 7 7 11 16 16 15 15 18 15 13 13 13 12 12 11 10 9 9
Wind_Direction
131 139 146 153 156 158 164 171 176 179 198 208 238 251 267 280 284 284 295 293 292 292 285 285 286 276 270 266 263 259 258 252 247 255 258 255 249 248 249 249 252 252 251
142 139 140 143 144 145 154 162 174 175 195 196 235 274 304 300 310 307 309 302 303 300 290 291 287 283 281 272 267 259 258 255 237 239 254 259 250 239 237 234 233 240 243
143 136 132 129 131 134 145 152 162 177 198 207 225 239 246 257 266 291 295 310 310 303 301 297 292 292 281 278 275 269 259 258 249 234 238 247 249 251 235 231 233 232 235
124 124 124 111 105 106 111 131 186 204 210 221 235 255 276 294 316 305 311 307 298 299 300 296 293 288 286 282 273 265 263 259 255 242 235 243 260 256 253 237 229 223 224
56 54 49 36 19 4 339 282 255 256 247 250 247 254 265 281 290 296 293 291 293 291 295 297 295 290 283 282 280 277 267 261 257 253 245 241 243 244 250 252 235 224 220
35 28 15 10 357 340 323 308 293 284 276 267 266 267 279 283 289 288 294 288 292 292 295 297 295 289 288 285 277 273 267 263 262 259 252 244 239 233 235 242 239 230 221
32 28 19 12 3 354 346 331 316 303 296 282 276 275 275 274 270 276 282 286 292 293 300 299 294 292 290 286 282 274 268 263 259 256 253 250 247 245 241 243 242 235 213
35 29 24 19 15 10 4 354 344 332 326 313 302 290 279 271 271 270 280 280 284 292 299 288 285 286 285 284 281 277 270 263 259 256 255 254 250 245 240 238 234 225 208
38 32 27 21 17 13 11 6 2 355 348 335 321 303 292 284 283 280 268 269 270 279 281 283 284 284 284 283 281 275 274 270 263 259 253 249 248 243 239 234 228 221 208
35 31 26 21 16 12 10 8 6 1 355 347 336 324 312 300 287 278 276 276 275 271 273 276 281 283 283 282 281 281 276 273 267 262 259 253 248 240 235 231 223 219 214
23 21 18 14 10 7 6 4 1 357 352 347 339 332 325 317 305 289 282 277 273 271 267 269 274 278 280 283 282 281 282 276 274 267 256 249 245 238 229 221 213 205 194
3 4 3 1 358 357 355 353 350 349 346 342 336 334 330 324 315 307 298 286 276 269 266 267 267 270 276 280 282 282 282 280 278 273 260 247 235 225 218 204 193 177 168
347 346 348 347 345 343 340 338 336 336 334 333 331 331 330 327 320 312 306 295 282 272 267 263 262 264 269 272 275 278 281 280 280 274 259 242 219 209 190 177 161 154 147
336 336 335 332 330 325 322 320 319 321 319 319 318 319 319 319 317 313 307 300 290 278 270 263 259 259 261 266 268 269 275 280 289 289 270 239 203 185 170 159 149 138 134
318 317 313 313 312 311 310 308 309 310 310 309 309 309 311 313 313 312 308 302 295 283 274 267 259 253 252 256 262 260 256 255 242 93 74 66 86 92 126 141 140 139 138
303 305 307 309 309 308 305 305 305 305 305 304 304 305 305 306 307 308 307 303 297 291 280 268 261 251 245 178 222 264 234 208 154 120 99 96 94 89 83 86 95 113 131
310 309 309 308 306 304 303 301 300 300 299 299 300 301 301 301 303 305 306 303 299 293 284 272 261 250 229 176 188 224 218 178 152 138 129 116 109 110 108 96 89 79 74
312 311 310 307 305 304 302 299 298 297 294 294 295 298 298 297 298 298 298 299 298 294 285 276 265 250 218 179 182 191 194 160 147 140 132 127 127 122 123 117 108 101 87
309 308 306 305 304 302 302 300 298 295 293 293 295 297 299 296 294 293 294 296 296 293 286 276 265 249 213 181 181 190 173 155 144 138 137 138 133 127 129 123 116 109 99
306 305 304 302 300 301 300 297 295 294 293 293 294 296 295 292 289 289 289 290 290 287 287 278 264 247 219 182 181 192 175 158 149 140 137 137 135 140 141 133 130 125 122
303 302 300 299 299 299 297 293 292 292 292 292 292 292 290 288 285 282 281 282 282 284 285 279 266 244 223 181 183 193 184 164 157 152 151 141 139 143 141 138 131 130 132
303 303 300 297 296 295 293 290 290 292 292 290 288 288 287 285 284 282 278 277 277 278 278 275 267 240 213 187 184 189 195 174 160 156 149 141 145 142 141 128 125 139 148
303 302 299 298 297 295 293 291 292 292 290 287 286 286 285 283 279 277 274 271 267 268 271 271 263 237 208 181 174 177 179 178 163 146 130 136 142 142 132 131 144 163 156
303 303 302 299 298 298 295 292 292 290 287 285 284 283 281 278 276 273 270 267 264 264 265 263 253 237 203 182 171 172 166 154 144 130 125 133 149 146 126 146 168 174 147
304 303 301 298 297 297 295 294 291 289 286 283 281 279 277 277 277 272 267 268 266 262 267 271 249 234 211 187 175 170 170 172 156 145 149 156 159 157 156 164 166 153 149
304 303 301 299 298 297 295 293 291 287 284 281 279 278 275 273 270 270 270 254 249 247 240 246 246 242 230 179 171 169 160 153 150 158 162 165 167 165 164 164 161 161 160